Погода в Бачатском

Россия / Кемеровская область (Кузбасс)     54°17′04″N   86°06′12″E
темп.,
°C
ветер,
м/с
пор.,
м/с
влажн.,
%
обл.,
%
осадки,
мм/ч
давл.,
гПа
погр.,
м
8 мая, сб
сб801:00+8зюз411614 0.0 1016269
04:00+7зюз310690 0.0 1018194
07:00+7зюз27690 0.0 1019193
10:00+13зсз57360 0.0 10191499
13:00+16з68335 0.0 10171828
16:00+17з7103879 0.0 10162347
19:00+15з51150100 0.0 10161300
22:00+12зюз4125829 0.0 1016384
9 мая, вс
вс901:00+11зюз3870100 0.3 1016190
04:00+9з2785100 0.8 1016145
07:00+8ссз36755 0.8 1018392
10:00+9с45572 0.0 1019874
13:00+12ссз56445 0.0 10181472
16:00+12с45375 0.0 10181704
19:00+11ссв56395 0.0 10191843
22:00+7св410541 0.0 1021341
10 мая, пн
пн1001:00+4св310670 0.0 1021305
04:00+2ссв39790 0.0 1021231
07:00+4св37730 0.0 1021284
10:00+9всв464914 0.0 1019917
13:00+13всв57362 0.0 10171497
16:00+15св67313 0.0 10151909
19:00+15св56355 0.0 10141594
22:00+9всв5125053 0.0 1015461
11 мая, вт
вт1101:00+6св386841 0.0 1015233
04:00+4с2778100 0.0 1014172
07:00+5с267491 0.0 1014229
10:00+10ссв345271 0.0 1012655
13:00+15св3434100 0.0 10111446
16:00+16св3330100 0.0 10101961
19:00+15зюз1139100 0.0 101122
22:00+11ссв0457100 0.0 1012181
12 мая, ср
ср1201:00+9юз2370100 0.0 1012139
04:00+8ююв1284100 0.2 101360
07:00+9с0285100 1.4 1013137
10:00+11с3563100 0.1 1013873
13:00+14св5637100 0.1 10131916
16:00+15ссв4635100 0.0 10132225
19:00+14с5644100 0.0 10141462
22:00+10с265871 0.0 1016203